Tracking 19564 objects as of 18-Mar-2019
HD Live streaming from Space Station
objects crossing your sky now

RADUGA 1-7

Track RADUGA 1-7 now!
RADUGA 1-7 is classified as:


NORAD ID: 28194
Int'l Code: 2004-010A
Perigee: 35,753.3 km
Apogee: 35,790.4 km
Inclination: 10.6 °
Period: 1,435.0 minutes
Semi major axis: 42142 km
RCS: 12.5893 m2 (large)
Launch date: March 27, 2004
Source: Commonwealth of Independent States (former USSR) (CIS)
Launch site: TYURATAM MISSILE AND SPACE COMPLEX (TTMTR)

Military communication.
aabbcc
Your satellite tracking list
Your tracking list is empty




NASA's NSSDC Master Catalog

Two Line Element Set (TLE):
1 28194U 04010A   19076.87144287 -.00000377 +00000-0 +00000-0 0  9991
2 28194 010.5625 040.5963 0004412 269.1264 288.4693 01.00349955054851
Source of the keplerian elements: AFSPC